| time (UTC) | temp F | wind direction | speed knots | gust knots | rain 1hr in | rain 24hr in | rain mn in | humidity % | barometer mb |
| 20260508070055 | 53 | 0 | 0.0 | 0.0 | 0.00 | 0.00 | 0.00 | 79 | 1016.8 |
| 20260508064543 | 53 | 0 | 0.0 | 0.0 | 0.00 | 0.00 | 0.00 | 79 | 1016.8 |
| 20260508063049 | 54 | 0 | 0.0 | 0.9 | 0.00 | 0.00 | 0.00 | 78 | 1016.8 |
| 20260508061551 | 54 | 0 | 0.0 | 0.0 | 0.00 | 0.00 | 0.00 | 76 | 1016.8 |
| 20260508060049 | 55 | 0 | 0.0 | 0.0 | 0.00 | 0.00 | 0.00 | 74 | 1016.8 |
| 20260508054548 | 55 | 0 | 0.0 | 0.9 | 0.00 | 0.00 | 0.00 | 73 | 1016.7 |
| 20260508053058 | 55 | 271 | 0.0 | 1.7 | 0.00 | 0.00 | 0.00 | 74 | 1016.7 |
| 20260508051546 | 56 | 0 | 0.0 | 0.9 | 0.00 | 0.00 | 0.00 | 75 | 1016.6 |
| 20260508050045 | 57 | 0 | 0.0 | 0.0 | 0.00 | 0.00 | 0.00 | 74 | 1016.6 |
| 20260508044549 | 58 | 0 | 0.0 | 0.0 | 0.00 | 0.00 | 0.00 | 71 | 1016.5 |
| 20260508043040 | 59 | 0 | 0.0 | 0.0 | 0.00 | 0.00 | 0.00 | 71 | 1016.5 |
| 20260508041543 | 60 | 0 | 0.0 | 0.0 | 0.00 | 0.00 | 0.00 | 67 | 1016.4 |
| 20260508040044 | 62 | 0 | 0.0 | 0.0 | 0.00 | 0.00 | 0.00 | 62 | 1016.4 |
| 20260508034548 | 63 | 0 | 0.0 | 0.0 | 0.00 | 0.00 | 0.00 | 58 | 1016.2 |
| 20260508033043 | 65 | 0 | 0.0 | 0.0 | 0.00 | 0.00 | 0.00 | 54 | 1015.9 |
| 20260508031544 | 66 | 0 | 0.0 | 0.0 | 0.00 | 0.00 | 0.00 | 49 | 1015.9 |
| 20260508030046 | 67 | 0 | 0.0 | 0.9 | 0.00 | 0.00 | 0.00 | 45 | 1015.7 |
| 20260508024553 | 68 | 0 | 0.0 | 0.0 | 0.00 | 0.00 | 0.00 | 41 | 1015.8 |
| 20260508023046 | 69 | 0 | 0.0 | 0.0 | 0.00 | 0.00 | 0.00 | 38 | 1015.9 |
| 20260508021548 | 70 | 0 | 0.0 | 1.7 | 0.00 | 0.00 | 0.00 | 40 | 1015.9 |
| 20260508020046 | 70 | 0 | 0.0 | 2.6 | 0.00 | 0.00 | 0.00 | 38 | 1016.1 |
| 20260508014543 | 70 | 0 | 0.0 | 0.0 | 0.00 | 0.00 | 0.00 | 40 | 1016.1 |
| 20260508013042 | 71 | 0 | 0.0 | 0.9 | 0.00 | 0.00 | 0.00 | 40 | 1016.0 |
| 20260508011600 | 71 | 0 | 1.7 | 5.2 | 0.00 | 0.00 | 0.00 | 36 | 1016.2 |
| 20260508010049 | 71 | 0 | 0.0 | 1.7 | 0.00 | 0.00 | 0.00 | 38 | 1016.4 |
| 20260508004556 | 72 | 277 | 0.0 | 5.2 | 0.00 | 0.00 | 0.00 | 36 | 1016.6 |
| 20260508003049 | 71 | 293 | 0.0 | 2.6 | 0.00 | 0.00 | 0.00 | 37 | 1016.7 |
| 20260508001552 | 72 | 0 | 1.7 | 6.1 | 0.00 | 0.00 | 0.00 | 35 | 1016.8 |
| 20260508000041 | 72 | 0 | 1.7 | 6.1 | 0.00 | 0.00 | 0.00 | 38 | 1016.8 |
| 20260507234553 | 72 | 0 | 1.7 | 4.3 | 0.00 | 0.00 | 0.00 | 36 | 1017.0 |
| 20260507233043 | 72 | 308 | 0.9 | 3.5 | 0.00 | 0.00 | 0.00 | 43 | 1017.0 |
| 20260507231549 | 71 | 305 | 0.0 | 4.3 | 0.00 | 0.00 | 0.00 | 39 | 1017.1 |
| 20260507230050 | 72 | 310 | 0.9 | 7.8 | 0.00 | 0.00 | 0.00 | 40 | 1017.3 |
| 20260507224549 | 71 | 284 | 2.6 | 8.7 | 0.00 | 0.00 | 0.00 | 39 | 1017.4 |
| 20260507223054 | 71 | 285 | 0.9 | 8.7 | 0.00 | 0.00 | 0.00 | 37 | 1017.6 |
| 20260507221548 | 70 | 294 | 0.9 | 6.1 | 0.00 | 0.00 | 0.00 | 41 | 1017.6 |
| 20260507220051 | 70 | 297 | 0.0 | 7.0 | 0.00 | 0.00 | 0.00 | 49 | 1017.9 |
| 20260507214548 | 70 | 294 | 2.6 | 6.1 | 0.00 | 0.00 | 0.00 | 46 | 1018.2 |
| 20260507213054 | 69 | 288 | 0.9 | 3.5 | 0.00 | 0.00 | 0.00 | 47 | 1018.5 |
| 20260507211547 | 69 | 288 | 0.9 | 6.1 | 0.00 | 0.00 | 0.00 | 48 | 1018.6 |
| 20260507210052 | 68 | 308 | 1.7 | 7.0 | 0.00 | 0.00 | 0.00 | 49 | 1018.9 |
| 20260507204552 | 68 | 298 | 0.9 | 7.0 | 0.00 | 0.00 | 0.00 | 50 | 1019.1 |
| 20260507203050 | 67 | 0 | 0.0 | 6.1 | 0.00 | 0.00 | 0.00 | 54 | 1019.1 |
| 20260507201544 | 67 | 284 | 0.0 | 3.5 | 0.00 | 0.00 | 0.00 | 58 | 1019.3 |
| 20260507200047 | 66 | 284 | 0.0 | 3.5 | 0.00 | 0.00 | 0.00 | 60 | 1019.4 |
| 20260507194545 | 66 | 286 | 3.5 | 7.8 | 0.00 | 0.00 | 0.00 | 54 | 1019.6 |
| 20260507193051 | 65 | 176 | 0.0 | 3.5 | 0.00 | 0.00 | 0.00 | 55 | 1019.7 |
| 20260507191551 | 65 | 221 | 0.0 | 6.1 | 0.00 | 0.00 | 0.00 | 57 | 1019.9 |
| 20260507190042 | 64 | 0 | 0.9 | 2.6 | 0.00 | 0.00 | 0.00 | 60 | 1020.1 |
| 20260507184547 | 63 | 0 | 4.3 | 7.8 | 0.00 | 0.00 | 0.00 | 58 | 1020.3 |
| 20260507183045 | 63 | 273 | 0.0 | 7.0 | 0.00 | 0.00 | 0.00 | 58 | 1020.4 |
| 20260507181543 | 62 | 294 | 2.6 | 7.0 | 0.00 | 0.00 | 0.00 | 60 | 1020.7 |
| 20260507180047 | 62 | 227 | 3.5 | 6.1 | 0.00 | 0.00 | 0.00 | 59 | 1020.7 |
| 20260507174547 | 62 | 295 | 0.0 | 4.3 | 0.00 | 0.00 | 0.00 | 58 | 1020.9 |
| 20260507173045 | 61 | 304 | 0.0 | 3.5 | 0.00 | 0.00 | 0.00 | 64 | 1021.0 |
| 20260507171558 | 60 | 0 | 0.0 | 6.1 | 0.00 | 0.00 | 0.00 | 64 | 1021.1 |
| 20260507170052 | 59 | 283 | 0.0 | 3.5 | 0.00 | 0.00 | 0.00 | 66 | 1021.0 |
| 20260507164549 | 57 | 0 | 0.9 | 5.2 | 0.00 | 0.00 | 0.00 | 70 | 1021.1 |
| 20260507163048 | 56 | 281 | 0.9 | 5.2 | 0.00 | 0.00 | 0.00 | 72 | 1021.0 |
| 20260507161543 | 54 | 281 | 1.7 | 5.2 | 0.00 | 0.00 | 0.00 | 75 | 1021.1 |
| 20260507160048 | 53 | 281 | 0.0 | 4.3 | 0.00 | 0.00 | 0.00 | 75 | 1021.1 |
| 20260507154550 | 53 | 277 | 1.7 | 6.1 | 0.00 | 0.00 | 0.00 | 75 | 1021.2 |
| 20260507153042 | 53 | 0 | 0.9 | 3.5 | 0.00 | 0.00 | 0.00 | 76 | 1021.2 |
| 20260507151548 | 52 | 285 | 0.9 | 5.2 | 0.00 | 0.00 | 0.00 | 76 | 1021.3 |
| 20260507150047 | 52 | 292 | 0.0 | 2.6 | 0.00 | 0.00 | 0.00 | 77 | 1021.3 |
| 20260507144613 | 51 | 0 | 0.0 | 7.0 | 0.00 | 0.00 | 0.00 | 77 | 1021.2 |
| 20260507143054 | 51 | 281 | 1.7 | 6.1 | 0.00 | 0.00 | 0.00 | 77 | 1021.2 |
| 20260507141548 | 51 | 293 | 0.9 | 3.5 | 0.00 | 0.00 | 0.00 | 78 | 1021.1 |
| 20260507140050 | 51 | 0 | 0.0 | 6.1 | 0.00 | 0.00 | 0.00 | 78 | 1021.0 |
| 20260507134544 | 51 | 293 | 2.6 | 6.1 | 0.00 | 0.00 | 0.00 | 78 | 1020.9 |
| 20260507133044 | 51 | 277 | 0.9 | 3.5 | 0.00 | 0.00 | 0.00 | 77 | 1020.7 |
| 20260507131544 | 51 | 0 | 0.0 | 5.2 | 0.00 | 0.00 | 0.00 | 77 | 1020.7 |
| 20260507130043 | 51 | 275 | 0.9 | 3.5 | 0.00 | 0.00 | 0.00 | 77 | 1020.8 |
| 20260507124549 | 52 | 298 | 0.9 | 7.8 | 0.00 | 0.00 | 0.00 | 76 | 1020.7 |
| 20260507123047 | 52 | 302 | 1.7 | 7.8 | 0.00 | 0.00 | 0.00 | 76 | 1020.7 |
| 20260507121542 | 52 | 336 | 3.5 | 7.8 | 0.00 | 0.00 | 0.00 | 75 | 1020.8 |
| 20260507120042 | 52 | 273 | 1.7 | 6.1 | 0.00 | 0.00 | 0.00 | 76 | 1020.8 |
| 20260507114539 | 53 | 294 | 3.5 | 7.0 | 0.00 | 0.00 | 0.00 | 75 | 1020.8 |
| 20260507113045 | 53 | 301 | 3.5 | 7.8 | 0.00 | 0.00 | 0.00 | 75 | 1020.8 |
| 20260507111548 | 53 | 323 | 4.3 | 7.0 | 0.00 | 0.00 | 0.00 | 75 | 1020.8 |
| 20260507110054 | 53 | 317 | 2.6 | 8.7 | 0.00 | 0.00 | 0.00 | 76 | 1020.8 |
| 20260507104543 | 53 | 344 | 0.9 | 5.2 | 0.00 | 0.00 | 0.00 | 76 | 1020.9 |
| 20260507103042 | 53 | 327 | 2.6 | 7.8 | 0.00 | 0.00 | 0.00 | 76 | 1020.9 |
| 20260507101550 | 54 | 300 | 2.6 | 8.7 | 0.00 | 0.00 | 0.00 | 77 | 1021.0 |
| 20260507100045 | 54 | 284 | 2.6 | 7.8 | 0.00 | 0.00 | 0.00 | 77 | 1021.1 |
| 20260507094547 | 54 | 297 | 4.3 | 9.6 | 0.00 | 0.00 | 0.00 | 77 | 1021.2 |
| 20260507093046 | 54 | 290 | 4.3 | 7.8 | 0.00 | 0.00 | 0.00 | 78 | 1021.3 |
| 20260507091542 | 54 | 288 | 2.6 | 5.2 | 0.00 | 0.00 | 0.00 | 77 | 1021.4 |
| 20260507090047 | 54 | 323 | 2.6 | 7.0 | 0.00 | 0.00 | 0.00 | 77 | 1021.3 |
| 20260507084547 | 55 | 284 | 0.9 | 6.1 | 0.00 | 0.00 | 0.00 | 78 | 1021.4 |
| 20260507083043 | 55 | 316 | 1.7 | 4.3 | 0.00 | 0.00 | 0.00 | 78 | 1021.4 |
| 20260507081542 | 55 | 287 | 1.7 | 7.0 | 0.00 | 0.00 | 0.00 | 78 | 1021.5 |
| 20260507080048 | 55 | 350 | 1.7 | 7.0 | 0.00 | 0.00 | 0.00 | 78 | 1021.5 |
| 20260507074545 | 55 | 299 | 4.3 | 8.7 | 0.00 | 0.00 | 0.00 | 78 | 1021.5 |
| 20260507073044 | 55 | 298 | 1.7 | 7.0 | 0.00 | 0.00 | 0.00 | 78 | 1021.5 |
| 20260507071543 | 55 | 294 | 1.7 | 4.3 | 0.00 | 0.00 | 0.00 | 78 | 1021.4 |